Total_Precipitation_Accumulation
1.41 1.38 1.25 1.15 1.07 1.04 1.02 0.99 0.89 0.80 0.71 0.64 0.58 0.53 0.48 0.41 0.38 0.38 0.38 0.37 0.45 0.63 0.84 0.99 1.10 1.13 1.11 1.12 1.08 0.98 0.90 0.79 0.70 0.63 0.56 0.51 0.46 0.44 0.46 0.48 0.52 0.48 0.45
1.61 1.54 1.44 1.37 1.25 1.17 1.13 1.10 1.01 1.03 1.02 0.90 0.76 0.66 0.57 0.51 0.44 0.41 0.39 0.40 0.45 0.51 0.67 0.88 1.05 1.18 1.30 1.39 1.37 1.24 1.07 0.96 0.88 0.81 0.72 0.63 0.56 0.54 0.56 0.57 0.56 0.53 0.48
1.73 1.67 1.64 1.51 1.33 1.28 1.29 1.27 1.22 1.21 1.16 1.05 0.92 0.85 0.76 0.69 0.60 0.53 0.48 0.45 0.48 0.52 0.61 0.77 0.95 1.12 1.33 1.58 1.71 1.64 1.43 1.23 1.07 0.95 0.90 0.82 0.74 0.66 0.68 0.69 0.69 0.66 0.61
1.76 1.76 1.72 1.70 1.54 1.46 1.48 1.43 1.35 1.30 1.20 1.12 1.03 0.97 0.90 0.85 0.79 0.75 0.70 0.62 0.58 0.53 0.59 0.72 0.85 1.02 1.22 1.48 1.75 1.85 1.73 1.49 1.25 1.11 1.02 0.97 0.93 0.89 0.86 0.85 0.84 0.78 0.72
1.87 1.82 1.70 1.67 1.70 1.60 1.52 1.53 1.49 1.41 1.32 1.24 1.18 1.11 1.04 0.99 0.92 0.88 0.87 0.82 0.77 0.71 0.65 0.71 0.75 0.82 1.04 1.29 1.48 1.77 1.82 1.67 1.44 1.27 1.17 1.12 1.11 1.10 1.06 0.99 0.95 0.88 0.82
1.89 1.84 1.72 1.73 1.78 1.72 1.56 1.49 1.45 1.44 1.39 1.41 1.38 1.26 1.17 1.10 1.06 1.00 0.94 0.91 0.89 0.85 0.78 0.72 0.70 0.73 0.88 1.13 1.36 1.60 1.79 1.79 1.67 1.48 1.34 1.26 1.22 1.20 1.20 1.19 1.13 1.04 0.99
1.95 1.96 1.86 1.86 1.87 1.80 1.70 1.69 1.68 1.61 1.52 1.52 1.50 1.32 1.23 1.18 1.10 1.04 0.99 0.89 0.82 0.83 0.85 0.82 0.73 0.69 0.73 0.93 1.17 1.42 1.73 1.93 1.90 1.78 1.61 1.48 1.39 1.33 1.34 1.39 1.37 1.32 1.25
2.14 2.08 2.08 2.12 2.07 1.97 1.88 1.82 1.81 1.77 1.66 1.65 1.66 1.59 1.40 1.33 1.18 1.01 0.96 0.89 0.85 0.81 0.80 0.87 0.87 0.77 0.69 0.72 0.84 1.08 1.41 1.80 2.09 2.17 2.07 1.87 1.74 1.64 1.61 1.60 1.60 1.58 1.53
2.35 2.24 2.18 2.26 2.26 2.14 2.03 1.95 1.87 1.81 1.82 1.79 1.72 1.81 1.59 1.31 1.17 1.07 0.98 0.90 0.89 0.89 0.85 0.85 0.88 0.86 0.77 0.70 0.70 0.81 1.04 1.39 1.86 2.25 2.41 2.32 2.15 2.03 2.01 1.97 1.95 1.91 1.84
2.42 2.41 2.37 2.34 2.37 2.33 2.16 2.08 2.01 1.95 1.94 1.90 1.82 1.65 1.54 1.34 1.26 1.13 1.01 0.97 0.96 0.91 0.87 0.85 0.86 0.89 0.91 0.87 0.84 0.85 0.90 1.06 1.42 1.86 2.23 2.33 2.30 2.25 2.24 2.24 2.29 2.33 2.27
2.41 2.38 2.35 2.28 2.23 2.25 2.29 2.25 2.10 2.04 1.95 1.81 1.73 1.61 1.51 1.33 1.18 1.17 1.03 0.92 0.96 0.93 0.88 0.86 0.89 0.93 0.96 0.94 0.91 0.95 1.03 1.08 1.28 1.65 2.07 2.33 2.47 2.56 2.60 2.54 2.47 2.43 2.39
2.39 2.36 2.36 2.26 2.14 2.08 2.07 2.16 2.18 2.07 1.98 1.86 1.73 1.64 1.55 1.45 1.29 1.26 1.21 1.01 0.98 0.95 0.94 0.92 0.88 0.90 0.94 0.98 1.01 1.19 1.16 1.21 1.39 1.68 2.08 2.44 2.60 2.68 2.75 2.77 2.74 2.64 2.49
2.16 2.18 2.22 2.24 2.17 2.10 2.12 2.13 2.17 2.11 2.01 1.91 1.79 1.68 1.61 1.50 1.36 1.38 1.44 1.32 1.15 0.99 0.95 0.96 0.95 0.97 0.99 1.05 1.16 1.40 1.38 1.43 1.53 1.75 2.12 2.41 2.51 2.52 2.55 2.69 2.78 2.82 2.79
1.99 2.03 2.04 2.04 2.08 2.04 2.04 2.06 2.06 2.10 2.09 1.99 1.85 1.71 1.60 1.49 1.45 1.51 1.56 1.64 1.58 1.30 1.10 1.02 1.01 1.08 1.16 1.24 1.44 1.59 1.44 1.61 1.68 1.82 2.07 2.35 2.33 2.27 2.23 2.35 2.54 2.67 2.67
1.85 1.88 1.90 1.84 1.84 1.87 1.90 1.91 1.89 1.84 1.89 1.91 1.83 1.75 1.63 1.51 1.52 1.56 1.63 1.78 1.99 1.89 1.50 1.19 1.18 1.22 1.29 1.40 1.66 1.56 1.45 1.71 1.74 1.74 1.80 1.87 1.84 1.84 1.91 2.00 2.08 2.16 2.18
1.54 1.61 1.68 1.68 1.68 1.74 1.78 1.77 1.71 1.65 1.63 1.61 1.62 1.65 1.62 1.54 1.52 1.53 1.62 1.72 1.86 1.97 1.78 1.31 1.16 1.22 1.36 1.46 1.69 1.57 1.50 1.70 1.64 1.67 1.64 1.61 1.56 1.55 1.61 1.71 1.72 1.72 1.72
1.27 1.35 1.45 1.55 1.57 1.60 1.66 1.67 1.59 1.56 1.52 1.46 1.45 1.51 1.50 1.44 1.49 1.49 1.52 1.62 1.73 1.88 1.91 1.54 1.30 1.31 1.41 1.45 1.47 1.37 1.32 1.33 1.32 1.51 1.43 1.38 1.37 1.35 1.36 1.43 1.53 1.53 1.50
1.14 1.17 1.17 1.20 1.30 1.38 1.47 1.53 1.51 1.47 1.44 1.38 1.34 1.39 1.42 1.42 1.45 1.48 1.53 1.58 1.61 1.68 1.76 1.63 1.39 1.29 1.25 1.21 1.20 1.17 1.12 1.06 1.03 1.27 1.26 1.19 1.17 1.14 1.11 1.14 1.26 1.34 1.32
0.97 1.04 1.04 1.03 1.03 1.07 1.15 1.27 1.36 1.40 1.37 1.34 1.35 1.35 1.36 1.44 1.48 1.49 1.54 1.58 1.53 1.48 1.46 1.43 1.27 1.11 1.06 1.04 1.09 1.07 1.04 1.02 0.92 1.05 1.15 1.12 1.09 1.03 0.99 0.99 1.04 1.12 1.16
0.70 0.75 0.80 0.83 0.88 0.92 0.95 1.02 1.12 1.23 1.31 1.34 1.37 1.39 1.39 1.46 1.55 1.59 1.58 1.56 1.49 1.43 1.35 1.30 1.22 1.11 1.03 0.97 1.00 1.05 1.06 1.04 0.97 0.87 1.01 1.04 1.04 1.04 0.97 0.91 0.88 0.89 0.96
0.53 0.55 0.61 0.66 0.72 0.78 0.85 0.90 0.94 1.03 1.11 1.20 1.30 1.38 1.43 1.55 1.61 1.56 1.43 1.32 1.27 1.25 1.21 1.19 1.12 1.03 0.97 0.94 0.92 0.86 0.88 0.92 0.97 0.89 0.89 0.91 0.89 0.86 0.86 0.89 0.88 0.87 0.90
0.50 0.52 0.55 0.59 0.65 0.70 0.90 0.96 0.91 0.91 1.00 1.08 1.14 1.20 1.29 1.37 1.30 1.30 1.25 1.17 1.18 1.21 1.18 1.08 0.95 0.83 0.73 0.70 0.71 0.77 0.85 0.98 1.04 0.88 0.84 0.87 0.85 0.87 0.79 0.77 0.88 0.87 0.88
0.53 0.56 0.57 0.61 0.64 0.72 0.88 0.93 1.02 0.97 0.98 1.01 1.02 1.04 1.02 0.99 1.01 0.88 0.94 0.96 0.96 0.99 0.97 0.90 0.86 0.70 0.62 0.61 0.74 0.86 0.86 0.88 0.81 0.71 0.80 0.94 0.88 0.84 0.73 0.73 0.87 0.86 0.86
0.71 0.72 0.71 0.73 0.77 0.85 0.95 0.92 0.95 0.90 0.88 0.84 0.80 0.80 0.81 0.78 0.79 0.82 0.83 0.83 0.73 0.67 0.66 0.61 0.58 0.54 0.57 0.65 0.80 0.94 0.96 0.97 0.86 0.76 0.80 0.97 0.89 0.81 0.72 0.69 0.77 0.77 0.82
0.95 0.95 0.96 0.94 0.91 0.90 0.89 0.79 0.76 0.72 0.71 0.66 0.61 0.61 0.64 0.64 0.73 0.86 0.85 0.81 0.74 0.66 0.66 0.68 0.68 0.67 0.73 0.78 0.85 1.00 1.15 1.28 1.20 0.92 0.78 0.82 0.77 0.74 0.76 0.75 0.76 0.80 0.78
0.92 0.89 0.88 0.85 0.78 0.69 0.66 0.61 0.59 0.55 0.56 0.50 0.49 0.51 0.61 0.65 0.77 0.90 0.89 0.85 0.81 0.70 0.67 0.70 0.69 0.68 0.66 0.69 0.79 0.78 0.90 1.21 1.24 1.03 0.71 0.72 0.75 0.87 1.05 0.83 0.76 0.80 0.80